Guatay (79, 629) Station Data

Red Flag Warning: No
Fire Weather Zone: 258
SDGE Region: Mountain Empire
Lat/Lon: 32.855/-116.574

Observations

Time Wind Speed/Gust Temp(F) RH Fuel Moist Fuel Temp(F) Dewpt(F) Tmax(F) Tmin(F) Accum Precip 10-min Precip SL Press(mb)
2/27 11:40pm 268 21 G 35 43° 96% - - 42° 45.8° 41.2° - - -
2/27 11:20pm 235 15 G 34 43° 97% - - 42° 45.8° 41.2° - - -
2/27 11:10pm 255 14 G 27 43° 97% - - 42° 45.8° 41.2° - - -
2/27 11:00pm 264 10 G 20 43° 97% - - 43° 45.8° 41.2° - - -
2/27 10:50pm 261 6 G 11 43° 96% - - 42° 45.8° 41.2° - - -
2/27 10:40pm 255 8 G 14 43° 96% - - 42° 45.8° 41.2° - - -
2/27 10:30pm 266 9 G 16 43° 96% - - 42° 45.8° 41.2° - - -
2/27 10:20pm 256 9 G 18 44° 95% - - 42° 45.8° 41.2° - - -
2/27 10:10pm 261 8 G 16 44° 95% - - 42° 45.8° 41.2° - - -
2/27 10:00pm 254 6 G 19 44° 95% - - 42° 45.8° 41.2° - - -
2/27 9:50pm 225 6 G 17 44° 96% - - 42° 45.8° 41.2° - - -
2/27 9:40pm 252 8 G 16 44° 96% - - 42° 45.8° 41.2° - - -
2/27 9:30pm 246 7 G 15 43° 96% - - 42° 45.8° 41.2° - - -
2/27 9:20pm 234 6 G 19 43° 96% - - 42° 45.8° 41.2° - - -
2/27 9:10pm 238 9 G 19 43° 96% - - 42° 45.8° 41.2° - - -
2/27 9:00pm 236 10 G 22 43° 95% - - 42° 45.8° 41.2° - - -
2/27 8:50pm 234 7 G 16 43° 95% - - 42° 45.8° 41.2° - - -
2/27 8:40pm 232 7 G 21 44° 95% - - 42° 45.8° 41.2° - - -
2/27 8:30pm 221 10 G 23 43° 95% - - 42° 45.8° 41.2° - - -
2/27 8:20pm 244 7 G 19 43° 95% - - 42° 45.8° 41.2° - - -
2/27 8:10pm 210 7 G 14 43° 94% - - 42° 45.8° 41.2° - - -
2/27 8:00pm 231 9 G 19 43° 94% - - 42° 45.8° 41.2° - - -
2/27 7:50pm 240 7 G 17 43° 94% - - 41° 45.8° 41.2° - - -
2/27 7:40pm 115 5 G 18 43° 94% - - 41° 45.8° 41.2° - - -
2/27 7:30pm 88 7 G 18 43° 93% - - 41° 45.8° 41.2° - - -
2/27 7:20pm 75 5 G 9 43° 93% - - 41° 45.8° 41.2° - - -
2/27 7:10pm 185 4 G 10 43° 92% - - 41° 45.8° 41.2° - - -
2/27 7:00pm 102 5 G 10 43° 92% - - 41° 45.8° 41.2° - - -
2/27 6:50pm 118 6 G 15 43° 92% - - 41° 45.8° 41.2° - - -
2/27 6:40pm 132 9 G 17 43° 91% - - 41° 45.8° 41.2° - - -
2/27 6:30pm 132 6 G 11 43° 92% - - 41° 45.8° 41.2° - - -
2/27 6:20pm 185 6 G 15 43° 93% - - 41° 45.8° 41.2° - - -
2/27 6:10pm 168 7 G 17 43° 94% - - 41° 45.8° 41.2° - - -
2/27 6:00pm 199 9 G 20 43° 94% - - 41° 45.8° 41.2° - - -
2/27 5:50pm 201 11 G 22 43° 94% - - 42° 45.8° 41.2° - - -
2/27 5:40pm 199 10 G 20 43° 95% - - 42° 45.8° 41.2° - - -
2/27 5:30pm 204 10 G 18 43° 94% - - 42° 45.8° 41.2° - - -
2/27 5:20pm 204 13 G 20 44° 93% - - 42° 45.8° 41.2° - - -
2/27 5:10pm 211 11 G 21 44° 94% - - 42° 45.8° 41.2° - - -
2/27 5:00pm 206 8 G 18 44° 93% - - 42° 45.8° 41.2° - - -
2/27 4:50pm 217 8 G 17 44° 93% - - 42° 45.8° 41.2° - - -
2/27 4:40pm 219 9 G 18 44° 93% - - 42° 45.8° 41.2° - - -
2/27 4:30pm 210 10 G 21 44° 92% - - 42° 45.8° 41.2° - - -
2/27 4:20pm 214 10 G 17 44° 93% - - 42° 45.8° 41.2° - - -
2/27 4:10pm 223 11 G 21 44° 94% - - 42° 45.8° 41.2° - - -
2/27 4:00pm 227 10 G 18 44° 93% - - 42° 45.8° 41.2° - - -
2/27 3:50pm 227 7 G 17 44° 93% - - 42° 45.8° 41.2° - - -
2/27 3:40pm 243 10 G 19 43° 92% - - 41° 45.8° 41.2° - - -
2/27 3:30pm 238 11 G 18 44° 93% - - 42° 45.8° 41.2° - - -
2/27 3:20pm 219 10 G 22 44° 94% - - 42° 45.8° 41.2° - - -
2/27 3:10pm 239 8 G 21 44° 93% - - 42° 45.8° 41.2° - - -
2/27 3:00pm 251 13 G 21 44° 94% - - 42° 45.8° 41.2° - - -
2/27 2:50pm 248 11 G 23 44° 95% - - 43° 45.8° 41.2° - - -
2/27 2:40pm 245 13 G 23 44° 94% - - 42° 45.8° 41.2° - - -
2/27 2:30pm 226 14 G 27 44° 94% - - 43° 45.8° 41.2° - - -
2/27 2:20pm 221 14 G 25 44° 94% - - 43° 45.8° 41.2° - - -
2/27 2:10pm 214 13 G 27 44° 94% - - 42° 45.8° 41.2° - - -
2/27 2:00pm 212 14 G 29 44° 95% - - 43° 45.8° 41.2° - - -
2/27 1:50pm 223 16 G 26 45° 95% - - 43° 45.8° 41.2° - - -
2/27 1:40pm 229 14 G 25 45° 95% - - 43° 45.8° 41.2° - - -
2/27 1:30pm 231 13 G 27 45° 95% - - 43° 45.8° 41.2° - - -
2/27 1:20pm 218 12 G 25 44° 96% - - 43° 45.8° 41.2° - - -
2/27 1:10pm 213 14 G 26 44° 96% - - 43° 45.8° 41.2° - - -
2/27 1:00pm 204 12 G 23 44° 95% - - 43° 45.8° 41.2° - - -
2/27 12:50pm 215 14 G 29 45° 94% - - 43° 45.8° 41.2° - - -
2/27 12:40pm 228 15 G 30 45° 94% - - 43° 45.8° 41.2° - - -
2/27 12:30pm 214 13 G 32 45° 95% - - 44° 45.8° 41.2° - - -
2/27 12:20pm 229 14 G 25 45° 95% - - 44° 45.8° 41.2° - - -
2/27 12:10pm 261 12 G 26 45° 95% - - 43° 45.8° 41.2° - - -
2/27 12:00pm 255 11 G 21 44° 95% - - 43° 45.8° 41.2° - - -
2/27 11:50am 262 12 G 29 45° 94% - - 43° 45.8° 41.2° - - -
2/27 11:40am 245 12 G 29 45° 95% - - 43° 45.8° 41.2° - - -
2/27 11:30am 266 13 G 30 45° 94% - - 43° 45.8° 41.2° - - -
2/27 11:20am 254 12 G 31 45° 94% - - 43° 45.8° 41.2° - - -
2/27 11:10am 256 13 G 36 45° 94% - - 43° 45.8° 41.2° - - -
2/27 11:00am 222 10 G 24 45° 94% - - 44° 45.8° 41.2° - - -
2/27 10:50am 238 10 G 23 45° 95% - - 44° 45.8° 41.2° - - -
2/27 10:40am 253 11 G 22 45° 95% - - 44° 45.8° 41.2° - - -
2/27 10:30am 237 9 G 24 45° 95% - - 44° 45.8° 41.2° - - -
2/27 10:20am 233 11 G 19 45° 95% - - 44° 45.8° 41.2° - - -
2/27 10:10am 254 10 G 18 45° 95% - - 44° 45.8° 41.2° - - -
2/27 10:00am 253 9 G 16 45° 93% - - 44° 45.8° 41.2° - - -
2/27 9:50am 238 8 G 22 46° 93% - - 44° 45.8° 41.2° - - -
2/27 9:40am 206 8 G 20 46° 93% - - 44° 45.8° 41.2° - - -
2/27 9:30am 194 8 G 16 45° 94% - - 44° 45.6° 41.2° - - -
2/27 9:20am 187 10 G 27 45° 94% - - 43° 45.6° 41.2° - - -
2/27 9:10am 171 8 G 23 45° 94% - - 44° 45.6° 41.2° - - -
2/27 9:00am 221 7 G 20 45° 94% - - 43° 45.6° 41.2° - - -
2/27 8:50am 231 10 G 20 45° 94% - - 44° 45.6° 41.2° - - -
2/27 8:40am 234 7 G 16 45° 94% - - 44° 45.6° 41.2° - - -
2/27 8:30am 228 10 G 21 45° 94% - - 44° 45.6° 41.2° - - -
2/27 8:20am 228 9 G 24 45° 95% - - 44° 45.6° 41.2° - - -
2/27 8:10am 253 9 G 24 45° 95% - - 44° 45.6° 41.2° - - -
2/27 8:00am 231 8 G 15 45° 95% - - 44° 45.6° 41.2° - - -
2/27 7:50am 217 10 G 20 45° 95% - - 44° 45.6° 41.2° - - -
2/27 7:40am 211 8 G 17 45° 95% - - 44° 45.6° 41.2° - - -
2/27 7:30am 189 7 G 17 45° 94% - - 44° 45.6° 41.2° - - -
2/27 7:20am 223 8 G 18 45° 95% - - 44° 45.6° 41.2° - - -
2/27 7:10am 240 6 G 15 45° 95% - - 44° 45.6° 41.2° - - -
2/27 7:00am 238 7 G 13 45° 95% - - 44° 45.6° 41.2° - - -
2/27 6:50am 227 8 G 18 45° 94% - - 44° 45.6° 41.2° - - -
2/27 6:40am 219 10 G 20 45° 94% - - 44° 45.6° 41.2° - - -
2/27 6:30am 246 7 G 16 45° 94% - - 44° 45.6° 41.2° - - -
2/27 6:20am 230 6 G 17 45° 94% - - 44° 45.5° 41.2° - - -
2/27 6:10am 230 6 G 19 45° 94% - - 44° 45.5° 41.2° - - -
2/27 6:00am 207 7 G 15 45° 94% - - 44° 45.5° 41.2° - - -
2/27 5:50am 171 6 G 20 45° 94% - - 44° 45.5° 41.2° - - -
2/27 5:40am 194 5 G 22 45° 95% - - 44° 45.2° 41.2° - - -
2/27 5:30am 163 7 G 19 45° 95% - - 44° 45.2° 41.2° - - -
2/27 5:20am 235 7 G 20 45° 95% - - 44° 45.2° 41.2° - - -
2/27 5:10am 232 5 G 12 45° 95% - - 44° 45° 41.2° - - -
2/27 5:00am 240 8 G 27 45° 95% - - 44° 45° 41.2° - - -
2/27 4:50am 241 7 G 23 45° 95% - - 43° 45° 41.2° - - -
2/27 4:40am 217 7 G 20 45° 94% - - 43° 45° 41.2° - - -
2/27 4:30am 234 7 G 22 45° 94% - - 43° 45° 41.2° - - -
2/27 4:20am 233 6 G 18 45° 94% - - 43° 45° 41.2° - - -
2/27 4:10am 219 6 G 18 45° 94% - - 43° 44.8° 41.2° - - -
2/27 4:00am 232 5 G 13 44° 94% - - 43° 44.8° 41.2° - - -
2/27 3:50am 258 6 G 24 44° 94% - - 43° 44.8° 41.2° - - -
2/27 3:40am 238 6 G 15 44° 94% - - 43° 44.8° 41.2° - - -
2/27 3:30am 259 5 G 15 44° 94% - - 43° 44.8° 41.2° - - -
2/27 3:20am 230 6 G 13 45° 94% - - 43° 44.8° 41.2° - - -
2/27 3:10am 213 8 G 16 44° 94% - - 43° 44.7° 41.2° - - -
2/27 3:00am 217 8 G 16 44° 95% - - 43° 44.4° 41.2° - - -
2/27 2:50am 202 9 G 16 44° 95% - - 43° 44.2° 41.2° - - -
2/27 2:40am 209 9 G 18 44° 95% - - 42° 44° 41.2° - - -
2/27 2:30am 202 10 G 17 43° 96% - - 42° 43.7° 41.2° - - -
2/27 2:20am 204 8 G 17 43° 97% - - 42° 43.3° 41.2° - - -
2/27 2:10am 205 9 G 16 43° 97% - - 42° 43.3° 41.2° - - -
2/27 2:00am 216 6 G 15 43° 97% - - 42° 43° 41.2° - - -
2/27 1:50am 213 8 G 15 43° 97% - - 42° 43° 41.2° - - -
2/27 1:40am 224 8 G 13 43° 97% - - 42° 42.9° 41.2° - - -
2/27 1:30am 234 6 G 11 42° 97% - - 42° 42.7° 41.2° - - -
2/27 1:20am 235 8 G 12 42° 97% - - 42° 42.6° 41.2° - - -
2/27 1:10am 244 8 G 14 42° 97% - - 41° 42.4° 41.2° - - -
2/27 1:00am 255 8 G 13 42° 97% - - 41° 42.3° 41.2° - - -
2/27 12:50am 239 8 G 12 42° 97% - - 41° 42.2° 41.2° - - -
2/27 12:40am 233 6 G 14 42° 97% - - 41° 42° 41.2° - - -
2/27 12:30am 241 6 G 13 42° 97% - - 41° 41.9° 41.2° - - -
2/27 12:20am 230 8 G 16 42° 97% - - 41° 41.9° 41.2° - - -
2/27 12:10am 233 9 G 16 41° 97% - - 41° 41.8° 41.2° - - -
2/27 12:00am 242 7 G 15 41° 97% - - 40° 41.6° 35.3° - - -
2/26 11:50pm 248 7 G 12 41° 97% - - 40° 41.6° 35.3° - - -
2/26 11:40pm 243 9 G 14 41° 97% - - 40° 41.6° 35.3° - - -
2/26 11:30pm 251 8 G 15 40° 97% - - 39° 41.6° 35.3° - - -
2/26 11:20pm 276 7 G 13 39° 97% - - 39° 41.6° 35.3° - - -
2/26 11:10pm 309 6 G 10 39° 97% - - 38° 41.6° 35.3° - - -
2/26 11:00pm 283 5 G 12 38° 97% - - 37° 41.6° 35.3° - - -
2/26 10:50pm 310 6 G 10 38° 96% - - 37° 41.6° 35.3° - - -
2/26 10:40pm 304 5 G 13 38° 95% - - 36° 41.6° 35.3° - - -
2/26 10:30pm 327 4 G 7 37° 96% - - 36° 41.6° 35.3° - - -
2/26 10:20pm 324 5 G 7 37° 96% - - 36° 41.6° 35.3° - - -
2/26 10:10pm 308 6 G 8 37° 96% - - 36° 41.6° 35.3° - - -
2/26 10:00pm 307 5 G 8 37° 97% - - 37° 41.6° 35.3° - - -
2/26 9:50pm 278 6 G 11 37° 97% - - 37° 41.6° 35.3° - - -
2/26 9:40pm 309 6 G 13 37° 97% - - 36° 41.6° 35.3° - - -
2/26 9:30pm 308 7 G 10 37° 96% - - 36° 41.6° 35.3° - - -
2/26 9:20pm 293 7 G 12 37° 96% - - 36° 41.6° 35.3° - - -
2/26 9:10pm 266 6 G 11 37° 96% - - 36° 41.6° 35.3° - - -
2/26 9:00pm 266 9 G 17 37° 96% - - 36° 41.6° 35.3° - - -
2/26 8:50pm 264 10 G 20 38° 96% - - 37° 41.6° 35.3° - - -
2/26 8:40pm 268 9 G 15 38° 96% - - 37° 41.6° 35.3° - - -
2/26 8:30pm 259 8 G 15 38° 96% - - 37° 41.6° 35.3° - - -
2/26 8:20pm 267 8 G 14 38° 96% - - 37° 41.6° 35.3° - - -
2/26 8:10pm 266 10 G 18 38° 96% - - 37° 41.6° 35.3° - - -
2/26 8:00pm 264 10 G 17 38° 96% - - 37° 41.6° 35.3° - - -
2/26 7:50pm 258 10 G 15 38° 96% - - 37° 41.6° 35.3° - - -
2/26 7:40pm 258 8 G 13 38° 94% - - 36° 41.6° 35.3° - - -
2/26 7:30pm 247 10 G 14 38° 93% - - 36° 41.6° 35.3° - - -
2/26 7:20pm 232 13 G 19 38° 93% - - 36° 41.6° 35.3° - - -
2/26 7:10pm 233 10 G 19 38° 95% - - 37° 41.6° 35.3° - - -
2/26 7:00pm 258 9 G 15 38° 95% - - 37° 41.6° 35.3° - - -
2/26 6:50pm 247 12 G 20 38° 95% - - 37° 41.6° 35.3° - - -
2/26 6:40pm 255 11 G 17 38° 95% - - 37° 41.6° 35.3° - - -
2/26 6:30pm 252 12 G 21 38° 95% - - 37° 41.6° 35.3° - - -
2/26 6:20pm 254 14 G 21 38° 94% - - 37° 41.6° 35.3° - - -
2/26 6:10pm 253 13 G 21 39° 91% - - 36° 41.6° 35.3° - - -
2/26 6:00pm 244 13 G 21 39° 92% - - 37° 41.6° 35.3° - - -
2/26 5:50pm 251 13 G 20 39° 94% - - 38° 41.6° 35.3° - - -
2/26 5:40pm 249 11 G 18 39° 94% - - 37° 41.6° 35.3° - - -
2/26 5:30pm 249 12 G 19 39° 95% - - 38° 41.6° 35.3° - - -
2/26 5:20pm 249 13 G 22 39° 95% - - 38° 41.6° 35.3° - - -
2/26 5:10pm 254 12 G 20 39° 95% - - 38° 41.6° 35.3° - - -
2/26 5:00pm 269 13 G 21 39° 95% - - 38° 41.6° 35.3° - - -